Location: *
(35.7833°N, 139.8000°E)
Time: 11:22:44
(UTC+00:00)

Daily predictions for brighter satellites

Satellite Brightness Start Highest point End
(mag) Time Altitude Azimuth Time Altitude Azimuth Time Altitude Azimuth
ATLAS 3B R/B 4.2 16:55:24 27° NNE 16:55:24 27° NNE 16:58:16 10° NNE
ADEOS II 4.2 17:23:22 10° N 17:24:54 20° N 17:24:54 20° N
CENTAUR R/B 4.0 17:31:10 27° N 17:31:10 27° N 17:35:00 10° NNE
Atlas Centaur 2 4.2 17:43:50 21° SE 17:43:50 21° SE 17:46:27 10° SE
Lacrosse 5 3.7 17:49:48 23° N 17:51:35 28° NE 17:55:56 10° E
Meteor 1-11 Rocket 4.4 17:52:17 10° N 17:57:41 51° ENE 18:03:01 10° SSE
ADEOS 4.2 17:59:45 10° NNE 18:04:51 53° E 18:05:48 46° SE
Meteor 1-5 Rocket 4.1 18:09:08 10° N 18:14:43 86° E 18:16:36 45° SSE
SL-4 R/B 4.4 18:23:57 12° SE 18:23:57 12° SE 18:24:16 10° SE
H-2A R/B 3.2 18:19:11 10° NNE 18:22:52 45° E 18:23:05 44° ESE
Yuri Rocket 4.4 18:25:33 35° S 18:25:33 35° S 18:30:33 10° ESE
OAO 3 Rocket 3.4 18:26:45 55° SE 18:26:45 55° SE 18:30:59 10° E
ASTRO E2 4.2 18:28:04 28° SE 18:28:04 28° SE 18:30:18 10° ESE
Cosmos 1553 Rocket 3.9 18:26:27 10° N 18:32:41 87° E 18:38:46 10° S
CZ-3 R/B 4.3 17:40:45 10° W 18:33:07 60° SSW 18:44:57 10° SE
Cosmos 1315 Rocket 4.4 18:38:17 25° NNW 18:38:17 25° NNW 18:40:15 10° N
Cosmos 2026 Rocket 4.4 18:37:07 40° WNW 18:37:07 40° WNW 18:42:46 10° N
Sakura Rocket 4.5 18:37:50 24° SSE 18:37:50 24° SSE 18:40:44 10° SE
USA 215 4.1 18:31:16 10° ENE 18:37:26 43° SE 18:42:44 14° SSW
Cosmos 1703 Rocket 3.5 18:38:23 52° S 18:39:27 87° E 18:43:53 10° N
USA 81 4.4 18:41:20 43° WNW 18:41:20 43° WNW 18:45:48 10° N
Cosmos 1680 Rocket 4.0 18:36:48 17° S 18:40:48 59° ESE 18:45:57 10° NNE
SeaSat 1 2.6 18:36:09 10° NNE 18:41:06 72° ESE 18:43:37 29° SSW
PSLV R/B 3.9 18:37:21 10° SSE 18:41:30 83° ENE 18:45:36 10° N
Cosmos 923 Rocket 4.0 18:40:14 30° SSW 18:42:56 84° ESE 18:48:17 10° NNE
ATLAS 3B R/B 4.5 18:42:40 13° NW 18:43:42 13° NW 18:46:44 10° N
BREEZE-M DEB (TANK) 3.7 18:41:40 35° WNW 18:43:54 82° SW 19:00:38 10° SE
IDEFIX/ARIANE 42P 2.5 18:41:44 10° N 18:46:59 67° WNW 18:49:12 35° SW
Cosmos 44 Rocket 4.3 18:47:42 30° NW 18:47:42 30° NW 18:51:49 10° N
OAO 2 Rocket 3.1 18:46:41 55° WSW 18:47:45 83° S 18:52:40 10° E
Okean 1-7 2.9 18:46:09 30° S 18:48:17 89° E 18:52:42 10° N
Cosmos 1417 Rocket 4.4 18:43:30 10° NNW 18:49:50 70° W 18:56:08 10° S
Meteor 1-31 Rocket 4.2 18:47:32 10° NNE 18:51:11 38° E 18:54:47 10° SSE
TSX-5 3.8 19:02:47 41° NW 19:02:47 41° NW 19:05:23 10° N
Shenzhou-11 Module 3.1 19:03:01 30° N 19:03:01 30° N 19:05:17 10° NE
ATLAS CENTAUR R/B 4.3 19:00:43 10° N 19:03:43 18° NE 19:06:34 10° E
Cosmos 2221 Rocket 4.2 18:59:39 10° S 19:03:57 56° E 19:08:17 10° NNE
Okean 1 3.6 19:00:05 10° S 19:04:00 68° E 19:07:56 10° NNE
Sich 1 Rocket 4.0 18:59:46 10° N 19:04:13 65° E 19:08:42 10° SSE
Cosmos 2292 Rocket 4.3 18:59:15 10° S 19:04:17 55° E 19:08:07 10° NNE
Cosmos 1656 3.9 19:00:33 10° SSW 19:06:12 72° ESE 19:11:53 10° NNE
Timation 2 Rocket 4.5 19:03:24 10° NW 19:08:32 31° WSW 19:13:42 10° SSW
Cosmos 1346 Rocket 4.5 19:09:19 10° NNW 19:10:56 19° NW 19:10:56 19° NW
S3M 4.1 19:10:55 10° NNW 19:16:55 52° W 19:22:59 10° SSW
Cosmos 1655 Rocket 4.5 19:13:14 16° SW 19:17:42 38° WNW 19:23:30 10° N
PAYLOAD A 3.8 19:13:09 10° N 19:17:48 62° WNW 19:22:25 10° SSW
Unknown 4.1 19:16:29 12° NNW 19:18:50 37° NE 19:21:31 10° ESE
Cosmos 1975 4.2 19:15:11 10° N 19:19:05 43° E 19:22:58 10° SSE
Cosmos 1536 4.2 19:20:32 10° NW 19:22:47 21° WNW 19:22:47 21° WNW
Cosmos 1908 Rocket 4.4 19:22:09 10° NNW 19:25:49 27° W 19:29:30 10° SSW
MSX 4.1 19:22:13 10° N 19:27:39 45° WNW 19:33:03 10° SW
BREEZE-M DEB (TANK) 4.5 19:21:13 10° WNW 19:28:33 27° NNW 19:31:36 10° NE
Atlas Centaur 2 4.1 19:26:29 14° SW 19:29:12 18° SSW 19:33:52 10° SSE
Lacrosse 5 2.2 19:29:52 10° NW 19:34:41 44° SW 19:39:27 10° SSE
Gbstr 26 Del rocket 4.4 19:26:34 10° NW 19:34:42 79° SW 19:41:59 10° SE
Okean 2 Rocket 3.2 19:33:02 10° N 19:37:34 86° E 19:42:03 10° S
Okean 3 3.4 19:35:12 10° S 19:39:22 85° W 19:43:35 10° N
CZ-2C R/B 2.7 19:35:19 10° N 19:40:07 48° WNW 19:45:01 10° SW
Cosmos 1743 2.7 19:36:39 10° NNW 19:40:31 63° W 19:44:20 10° S
Centaur D AC-28 4.1 19:39:20 10° S 19:41:26 14° SE 19:44:07 10° ESE
Meteor PRIRODA 3.6 19:39:57 10° N 19:43:37 64° WNW 19:47:17 10° SSW
Cosmos 2266 Rocket 4.5 19:39:29 10° SW 19:44:58 35° WNW 19:50:26 10° NNW
Cosmos 1371 Rocket 4.3 19:41:12 10° NNW 19:46:34 77° ENE 19:51:51 10° SSE
Helios 1A Rocket 3.5 19:42:41 10° NNE 19:46:45 62° ESE 19:50:49 10° S
Abrixas rocket 3.2 19:44:52 15° W 19:46:51 28° NNW 19:49:32 10° NNE
CZ-4B R/B 4.2 19:44:07 10° NNE 19:49:25 50° E 19:54:35 10° S
ALOS 3.5 19:47:51 10° NNE 19:52:21 46° E 19:56:49 10° S
Unknown 4.0 19:50:22 10° NW 19:53:29 46° NE 19:56:35 10° ESE
Meteor 1-19 Rocket 4.3 19:49:07 10° SSW 19:54:43 63° W 20:00:31 10° N
SJ-12 4.1 19:52:22 10° NNE 19:56:27 79° ESE 20:00:29 10° S
Cosmos 1666 4.2 19:54:10 10° NW 19:56:31 16° W 19:58:51 10° SW
Cosmos 1697 Rocket 2.7 19:51:14 10° SSW 19:56:52 74° WNW 20:02:33 10° NNE
H-2A R/B 4.3 19:57:03 10° NW 19:57:57 11° WNW 19:58:51 10° W
Okean O Rocket 2.2 19:53:59 10° NNE 19:58:26 65° ESE 20:02:49 10° S
Meteor 2-8 Rocket 4.5 19:53:29 10° NNW 19:59:35 66° W 20:05:40 10° S
Cosmos 1378 Rocket 4.3 19:55:16 10° S 19:59:35 59° E 20:03:57 10° NNE
DELTA 2 R/B(2) 4.5 19:59:35 10° NW 20:01:07 28° NNE 20:02:57 10° ENE
Cosmos 1300 Rocket 3.5 19:58:08 10° N 20:02:31 76° W 20:06:54 10° S
Cosmos 2227 Rocket 2.2 19:57:58 10° NNW 20:03:38 69° WSW 20:09:14 10° S
